Location: Doussal
(55.6167°N, 116.8333°W)
Time: 04:26:00
(UTC+00:00)

METEOR M2 - Pass Details

Date: 13 December 2023
Orbit: 818 x 826 km, 98.4° (Epoch: 25 February)

Event Time Altitude Azimuth Distance (km) Brightness Sun altitude
Rises 01:52:53 0° 205° (SSW) 3,356 ? -20.5°
Reaches altitude 10° 01:55:43 10° 219° (SW) 2,428 ? -20.9°
Maximum altitude 01:59:55 23° 271° (W) 1,699 ? -21.5°
Drops below altitude 10° 02:04:09 10° 323° (NW) 2,439 ? -22.1°
Sets 02:07:02 0° 338° (NNW) 3,376 ? -22.5°
